When you browse on this site, cookies collect data to enhance your experience and personalize the content and advertising you see.
Visit our Privacy Policy to learn more. By continuing to use the site, you agree to this use of cookies and data.
  • In Portugal
  • List of Countries
  • For 7 days
  • Water Temperature
  • Satellite Maps
  • Weather Map
  • Weather Widgets
  • user-avatar
    Login

    Hourly Weather Dneprovskiy

    Today, 26 June, Wednesday

    Time Temperature Precipitation Wind Pressure Humidity
    00:00 +18°C° 0 mm 1 mps 758 mmHg 81%
    01:00 +16°C° 0 mm 1 mps 758 mmHg 81%
    02:00 +16°C° 0 mm 1 mps 758 mmHg 79%
    03:00 +16°C° 0 mm 1 mps 758 mmHg 80%
    04:00 +18°C° 0 mm 1 mps 757 mmHg 81%
    05:00 +16°C° 0 mm 0 mps 757 mmHg 83%
    06:00 +18°C° 0 mm 0 mps 757 mmHg 78%
    07:00 +22°C° 0 mm 1 mps 757 mmHg 74%
    08:00 +23°C° 0 mm 1 mps 757 mmHg 70%
    09:00 +25°C° 0 mm 1 mps 756 mmHg 65%
    10:00 +26°C° 0 mm 2 mps 756 mmHg 59%
    11:00 +27°C° 0 mm 2 mps 756 mmHg 54%
    12:00 +28°C° 0 mm 3 mps 755 mmHg 52%
    13:00 +28°C° 0 mm 3 mps 755 mmHg 51%
    14:00 +29°C° 0 mm 3 mps 755 mmHg 50%
    15:00 +29°C° 0 mm 3 mps 754 mmHg 54%
    16:00 +29°C° 0 mm 3 mps 753 mmHg 57%
    17:00 +29°C° 0 mm 3 mps 752 mmHg 60%
    18:00 +27°C° 0 mm 3 mps 752 mmHg 65%
    19:00 +26°C° 0 mm 2 mps 751 mmHg 70%
    20:00 +24°C° 0 mm 2 mps 751 mmHg 76%
    21:00 +24°C° 0 mm 3 mps 751 mmHg 76%
    22:00 +22°C° 0 mm 4 mps 750 mmHg 76%
    23:00 +22°C° 0 mm 4 mps 749 mmHg 76%

    Tomorrow, 27 June, Thursday

    Time Temperature Precipitation Wind Pressure Humidity
    00:00 +22°C° 0.1 mm 4 mps 749 mmHg 77%
    01:00 +22°C° 0.1 mm 4 mps 748 mmHg 78%
    02:00 +22°C° 0.1 mm 4 mps 747 mmHg 78%
    03:00 +22°C° 0.1 mm 5 mps 746 mmHg 82%
    04:00 +22°C° 0.1 mm 5 mps 746 mmHg 85%
    05:00 +22°C° 0.1 mm 5 mps 745 mmHg 88%
    06:00 +22°C° 0.2 mm 5 mps 744 mmHg 88%
    07:00 +23°C° 0.2 mm 6 mps 743 mmHg 89%
    08:00 +24°C° 0.2 mm 6 mps 743 mmHg 89%
    09:00 +24°C° 2.3 mm 6 mps 742 mmHg 86%
    10:00 +26°C° 2.3 mm 7 mps 741 mmHg 83%
    11:00 +27°C° 2.3 mm 7 mps 741 mmHg 81%
    12:00 +27°C° 0.7 mm 8 mps 741 mmHg 78%
    13:00 +26°C° 0.7 mm 8 mps 741 mmHg 75%
    14:00 +26°C° 0.7 mm 8 mps 740 mmHg 72%
    15:00 +24°C° 0.2 mm 8 mps 740 mmHg 74%
    16:00 +23°C° 0.2 mm 8 mps 740 mmHg 75%
    17:00 +22°C° 0.2 mm 8 mps 740 mmHg 76%
    18:00 +21°C° 0 mm 7 mps 740 mmHg 77%
    19:00 +19°C° 0 mm 6 mps 741 mmHg 78%
    20:00 +17°C° 0 mm 6 mps 741 mmHg 79%
    21:00 +16°C° 0 mm 6 mps 741 mmHg 79%
    22:00 +15°C° 0 mm 5 mps 741 mmHg 79%
    23:00 +15°C° 0 mm 5 mps 741 mmHg 80%

    Day after tomorrow, 28 June, Friday

    Time Temperature Precipitation Wind Pressure Humidity
    00:00 +14°C° 0 mm 6 mps 741 mmHg 77%
    01:00 +14°C° 0 mm 6 mps 741 mmHg 75%
    02:00 +14°C° 0 mm 6 mps 741 mmHg 73%
    03:00 +13°C° 0 mm 6 mps 741 mmHg 74%
    04:00 +13°C° 0 mm 6 mps 741 mmHg 76%
    05:00 +11°C° 0 mm 6 mps 741 mmHg 78%
    06:00 +12°C° 0 mm 7 mps 741 mmHg 76%
    07:00 +14°C° 0 mm 7 mps 741 mmHg 74%
    08:00 +15°C° 0 mm 8 mps 741 mmHg 72%
    09:00 +15°C° 0 mm 8 mps 741 mmHg 72%
    10:00 +15°C° 0 mm 8 mps 741 mmHg 71%
    11:00 +16°C° 0 mm 8 mps 741 mmHg 71%
    12:00 +16°C° 0.1 mm 8 mps 742 mmHg 68%
    13:00 +17°C° 0.1 mm 8 mps 742 mmHg 66%
    14:00 +17°C° 0.1 mm 8 mps 742 mmHg 64%
    15:00 +17°C° 0.4 mm 7 mps 742 mmHg 66%
    16:00 +17°C° 0.4 mm 7 mps 742 mmHg 68%
    17:00 +17°C° 0.4 mm 6 mps 742 mmHg 70%
    18:00 +16°C° 0.1 mm 6 mps 743 mmHg 72%
    19:00 +15°C° 0.1 mm 5 mps 743 mmHg 73%
    20:00 +14°C° 0.1 mm 5 mps 743 mmHg 75%
    21:00 +13°C° 0 mm 5 mps 743 mmHg 72%
    22:00 +13°C° 0 mm 5 mps 743 mmHg 69%
    23:00 +12°C° 0 mm 5 mps 744 mmHg 67%

    29 June, Saturday

    Time Temperature Precipitation Wind Pressure Humidity
    00:00 +10°C° 0 mm 5 mps 744 mmHg 66%
    01:00 +10°C° 0 mm 5 mps 744 mmHg 65%
    02:00 +9°C° 0 mm 5 mps 744 mmHg 64%
    03:00 +9°C° 0 mm 5 mps 744 mmHg 65%
    04:00 +9°C° 0 mm 5 mps 744 mmHg 66%
    05:00 +8°C° 0 mm 6 mps 745 mmHg 67%
    06:00 +10°C° 0 mm 6 mps 745 mmHg 63%
    07:00 +11°C° 0 mm 7 mps 745 mmHg 59%
    08:00 +12°C° 0 mm 8 mps 745 mmHg 54%
    09:00 +15°C° 0 mm 8 mps 745 mmHg 52%
    10:00 +16°C° 0 mm 8 mps 745 mmHg 50%
    11:00 +17°C° 0 mm 8 mps 745 mmHg 47%
    12:00 +17°C° 0 mm 8 mps 745 mmHg 47%
    13:00 +18°C° 0 mm 8 mps 745 mmHg 47%
    14:00 +20°C° 0 mm 7 mps 745 mmHg 46%
    15:00 +18°C° 0 mm 7 mps 745 mmHg 50%
    16:00 +19°C° 0 mm 6 mps 745 mmHg 53%
    17:00 +19°C° 0 mm 5 mps 745 mmHg 57%
    18:00 +18°C° 0 mm 4 mps 746 mmHg 60%
    19:00 +15°C° 0 mm 4 mps 746 mmHg 63%
    20:00 +14°C° 0 mm 4 mps 746 mmHg 66%
    21:00 +13°C° 0 mm 4 mps 746 mmHg 72%
    22:00 +12°C° 0 mm 4 mps 747 mmHg 78%
    23:00 +11°C° 0 mm 4 mps 747 mmHg 83%

    30 June, Sunday

    Time Temperature Precipitation Wind Pressure Humidity
    00:00 +11°C° 0 mm 3 mps 747 mmHg 87%
    01:00 +10°C° 0 mm 3 mps 747 mmHg 91%
    02:00 +10°C° 0 mm 3 mps 747 mmHg 95%
    03:00 +10°C° 0 mm 3 mps 748 mmHg 95%
    04:00 +11°C° 0 mm 3 mps 748 mmHg 95%
    05:00 +11°C° 0 mm 3 mps 748 mmHg 94%
    06:00 +13°C° 0 mm 3 mps 748 mmHg 88%
    07:00 +16°C° 0 mm 3 mps 748 mmHg 82%
    08:00 +17°C° 0 mm 4 mps 749 mmHg 75%
    09:00 +19°C° 0 mm 4 mps 749 mmHg 70%
    10:00 +20°C° 0 mm 4 mps 749 mmHg 66%
    11:00 +21°C° 0 mm 4 mps 749 mmHg 61%
    12:00 +22°C° 0 mm 4 mps 749 mmHg 59%
    13:00 +23°C° 0 mm 4 mps 749 mmHg 57%
    14:00 +23°C° 0 mm 5 mps 749 mmHg 55%
    15:00 +23°C° 0 mm 4 mps 749 mmHg 57%
    16:00 +23°C° 0 mm 4 mps 749 mmHg 58%
    17:00 +23°C° 0 mm 4 mps 749 mmHg 60%
    18:00 +22°C° 0 mm 3 mps 749 mmHg 66%
    19:00 +20°C° 0 mm 3 mps 749 mmHg 71%
    20:00 +19°C° 0 mm 2 mps 749 mmHg 77%
    21:00 +18°C° 0 mm 2 mps 749 mmHg 80%
    22:00 +18°C° 0 mm 1 mps 750 mmHg 84%
    23:00 +16°C° 0 mm 1 mps 750 mmHg 88%

    1 July, Monday

    Time Temperature Precipitation Wind Pressure Humidity
    00:00 +16°C° 0 mm 1 mps 750 mmHg 89%
    01:00 +16°C° 0 mm 1 mps 750 mmHg 90%
    02:00 +15°C° 0 mm 2 mps 749 mmHg 91%
    03:00 +16°C° 0 mm 2 mps 749 mmHg 90%
    04:00 +16°C° 0 mm 2 mps 749 mmHg 90%
    05:00 +16°C° 0 mm 3 mps 749 mmHg 90%
    06:00 +18°C° 0 mm 3 mps 748 mmHg 85%
    07:00 +20°C° 0 mm 4 mps 748 mmHg 79%
    08:00 +22°C° 0 mm 4 mps 748 mmHg 74%
    09:00 +23°C° 0 mm 4 mps 747 mmHg 69%
    10:00 +26°C° 0 mm 5 mps 747 mmHg 64%
    11:00 +28°C° 0 mm 5 mps 747 mmHg 58%
    12:00 +29°C° 0 mm 5 mps 746 mmHg 57%
    13:00 +29°C° 0 mm 5 mps 746 mmHg 55%
    14:00 +30°C° 0 mm 5 mps 745 mmHg 53%
    15:00 +29°C° 0.8 mm 5 mps 745 mmHg 62%
    16:00 +27°C° 0.8 mm 5 mps 744 mmHg 70%
    17:00 +26°C° 0.8 mm 5 mps 744 mmHg 78%
    18:00 +25°C° 0.1 mm 4 mps 744 mmHg 81%
    19:00 +23°C° 0.1 mm 4 mps 744 mmHg 85%
    20:00 +22°C° 0.1 mm 3 mps 744 mmHg 88%
    21:00 +20°C° 0 mm 3 mps 744 mmHg 89%
    22:00 +19°C° 0 mm 3 mps 744 mmHg 89%
    23:00 +17°C° 0 mm 3 mps 744 mmHg 89%
    Show more